www.pogodaiklimat.ru

Погода и климат >> Архив погоды >> Пакистан >> Бадин


ПОГОДА в Бадине

  • Прогноз погоды в Бадине
  • Монитор погоды в Бадине

АРХИВ ПОГОДЫ в Бадине

Время (UTC), дата Ветер
(напр.,м/с)
 
Видим.   Явления Облачность Т
(С)
Тd
(С)
f
(%)
Тe
(С)
Тes
(С)
Комфортность P
(гПа)
Po
(гПа)
Тmin
(С)
Tmax
(С)
R
(мм)
R24
(мм)
S
(см)
21 11.09 ЮЗ 1 4000 м ясно +30.0 +27.3 85 +48 +48 опасность
перегрева
1000.0 1000.0
00 12.09 ЮЗ 2 4000 м ясно +29.5 +27.5 89 +48 +48 опасность
перегрева
1000.0 1000.0
03 12.09 ЮЗ 1 10 км ясно +30.0 +27.3 85 +48 +52 опасность
перегрева
1000.0 1000.0 +27.5
06 12.09 ЮЗ 2 10 км 4/0
[Ci fib]
+32.0 +26.5 73 +49 +65 опасность
перегрева
1000.0 1000.0
09 12.09 ЮЗ 2 10 км 6/4 900 м
[St Ci fib]
+34.5 +26.3 62 +51 +60 опасность
перегрева
1000.0 1000.0
12 12.09 ЮЗ 2-6
{6}
10 км 4/0
[Ci fib]
+34.0 +27.2 68 +53 +55 опасность
перегрева
1000.0 1000.0 +35.1
15 12.09 СВ 4 4000 м 4/0
[Ci fib]
+34.6 +20.4 44 +41 +41 опасность
перегрева
1003.6 1003.4
18 12.09 ЮЗ 2 4000 м 6/4 900 м
[St Ci fib]
+30.5 +27.8 86
21 12.09 ЮЗ 1 4000 м 4/0
[Ac trans]
+29.5 +27.5 89 +48 +48 опасность
перегрева
1000.0 1000.0
00 13.09 ЮЗ 1 4000 м 6/0
[Ci fib]
+28.5 +27.2 93 +45 +45 опасность
перегрева
1000.0 1000.0
03 13.09 ЮЗ 3 10 км 4/0
[Ci fib]
+29.0 +26.2 85 +44 +47 опасность
перегрева
1000.0 1000.0 +27.0
06 13.09 ЮЗ 2 10 км 5/0
[Ac trans]
+31.5 +26.0 73 +47 +59 опасность
перегрева
1000.0 1000.0
09 13.09 ЮЗ 3 10 км 4/0
[Ac trans]
+33.0 +25.3 64 +47 +58 опасность
перегрева
1000.0 1000.0
12 13.09 ЮЗ 2 10 км 8/0
[Ac trans]
+32.5 +26.3 70 +49 +50 опасность
перегрева
1000.0 1000.0 +34.1
15 13.09 ЮЗ 2 4000 м 5/0
[Ac trans]
+30.5 +25.6 75 +45 +45 опасность
перегрева
1000.0 1000.0
18 13.09 ЮЗ 2 4000 м 4/0
[Ci fib]
+29.0 +26.2 85 +44 +44 опасность
перегрева
1000.0 1000.0
21 13.09 ЮЗ 1 4000 м 4/0
[Ci fib]
+28.0 +25.9 88 +42 +42 опасность
перегрева
1000.0 1000.0
00 14.09 ЮЗ 2 4000 м 4/0
[Ci fib]
+28.0 +25.9 88 +42 +42 опасность
перегрева
1000.0 1000.0
03 14.09 ЮЗ 1 10 км 6/0
[Ac trans Ci fib]
+28.5 +25.7 85 +42 +45 опасность
перегрева
1000.0 1000.0 +26.1
06 14.09 ЮЗ 2 10 км 8/3 900 м
[St Ac trans]
+31.0 +25.4 72 +45 +51 опасность
перегрева
1000.0 1000.0
09 14.09 З 3 10 км 8/5 900 м
[St Ci fib]
+32.5 +26.3 70 +49 +55 опасность
перегрева
1000.0 1000.0
12 14.09 ЮЗ 2 10 км 9/3 1200 м
[Sc Ci fib]
+32.5 +26.3 70 +49 +50 опасность
перегрева
1000.0 1000.0 +33.5
15 14.09 ЮЗ 2 4000 м 4/0
[Ci fib]
+30.5 +25.6 75 +45 +45 опасность
перегрева
1000.0 1000.0
18 14.09 ЮЗ 2 4000 м 6/0
[Ci fib]
+29.5 +26.0 81 +44 +44 опасность
перегрева
1000.0 1000.0
21 14.09 ЮЗ 2 4000 м 5/0
[Ci fib]
+28.5 +25.7 85 +42 +42 опасность
перегрева
1000.0 1000.0
00 15.09 ЮЗ 2 4000 м 8/0
[Ac trans Ci fib]
+27.5 +25.4 88 +40 +40 очень
душно
1000.0 1000.0
03 15.09 ЮЗ 2 10 км 4/0
[Ci fib]
+29.0 +25.5 81 +43 +46 опасность
перегрева
1000.0 1000.0 +26.1
06 15.09 ЮЗ 3 10 км 4/4 900 м
[St]
+31.0 +25.4 72 +45 +54 опасность
перегрева
1000.0 1000.0
09 15.09 ЮЗ 4 10 км 4/4 900 м
[St]
+32.5 +26.3 70 +49 +58 опасность
перегрева
1000.0 1000.0
12 15.09 ЮЗ 2 10 км 4/0
[Ac trans]
+31.5 +26.7 76 +49 +51 опасность
перегрева
1000.0 1000.0 +33.1
15 15.09 ЮЗ 2 4000 м 4/0
[Ac trans]
+30.0 +25.8 78 +45 +45 опасность
перегрева
1000.0 1000.0
18 15.09 ЮЗ 2 4000 м ясно +28.5 +25.7 85 +42 +42 опасность
перегрева
1000.0 1000.0
21 15.09 ЮЗ 1 4000 м ясно +28.0 +25.2 85 +41 +41 опасность
перегрева
1000.0 1000.0
00 16.09 ЮЗ 1 4000 м ясно +27.0 +25.6 92 +40 +40 очень
душно
1000.0 1000.0
03 16.09 ЮЗ 2 10 км 3/3 900 м
[St]
+28.5 +25.7 85 +42 +45 опасность
перегрева
1000.0 1000.0 +26.1
06 16.09 ЮЗ 2 10 км 8/8 900 м
[St]
+31.0 +26.1 75 +46 +50 опасность
перегрева
1000.0 1000.0
09 16.09 ЮЗ 2 10 км 4/4 900 м
[St]
+33.0 +26.1 67 +49 +58 опасность
перегрева
1000.0 1000.0
12 16.09 ЮЗ 2 10 км 4/0
[Ci fib]
+32.5 +25.5 67 +47 +49 опасность
перегрева
1000.0 1000.0 +33.5
15 16.09 ЮЗ 2 4000 м ясно +30.0 +25.8 78 +45 +45 опасность
перегрева
1000.0 1000.0
18 16.09 ЮЗ 2 4000 м ясно +28.5 +25.7 85 +42 +42 опасность
перегрева
1000.0 1000.0
21 16.09 ЮЗ 1 4000 м ясно +27.5 +25.4 88 +40 +40 очень
душно
1000.0 1000.0
00 17.09 ЮЗ 1 4000 м ясно +27.0 +24.9 88 +39 +39 очень
душно
1000.0 1000.0
03 17.09 ЮЗ 1 10 км ясно +28.0 +25.2 85 +41 +44 опасность
перегрева
1000.0 1000.0 +25.7
06 17.09 ЮЗ 2 10 км 4/4 900 м
[St]
+31.0 +24.6 69 +44 +53 опасность
перегрева
1000.0 1000.0
09 17.09 ЮЗ 2 10 км 3/3 900 м
[St]
+33.0 +25.3 64 +47 +59 опасность
перегрева
1000.0 1000.0
12 17.09 ЮЗ 2 10 км 3/3 900 м
[St]
+33.5 +24.4 59 +46 +48 опасность
перегрева
1000.0 1000.0 +34.1
15 17.09 ЮЗ 1 4000 м 5/5 900 м
[St]
+31.0 +25.4 72 +45 +45 опасность
перегрева
1000.0 1000.0
18 17.09 ЮЗ 1 4000 м ясно +29.0 +25.5 81 +43 +43 опасность
перегрева
1000.0 1000.0
21 17.09 ЮЗ 1 4000 м ясно +28.5 +25.7 85 +42 +42 опасность
перегрева
1000.0 1000.0
00 18.09 штиль 0 4000 м ясно +27.5 +25.4 88 +40 +40 очень
душно
1000.0 1000.0
03 18.09 ЮЗ 1 10 км ясно +28.0 +25.2 85 +41 +44 опасность
перегрева
1000.0 1000.0 +25.5
06 18.09 ЮЗ 2 10 км ясно +31.0 +23.9 66 +43 +60 опасность
перегрева
1000.0 1000.0
09 18.09 ЮЗ 3 10 км ясно +33.0 +25.3 64 +47 +64 опасность
перегрева
1000.0 1000.0
12 18.09 ЮЗ 1 10 км ясно +34.0 +25.7 62 +49 +52 опасность
перегрева
1000.0 1000.0 +34.5
15 18.09 штиль 0 4000 м ясно +31.5 +26.0 73 +47 +47 опасность
перегрева
1000.0 1000.0
18 18.09 ЮЗ 1 4000 м ясно +29.5 +26.0 81 +44 +44 опасность
перегрева
1000.0 1000.0

 

Местоположение метеостанции Бадин (Пакистан): широта 24.63 долгота 68.90 высота над уровнем моря 11 м.

В архиве по умолчанию представлена погода в Бадине за последнюю неделю. Архивные данные за месяц целиком и за предыдущие месяцы, начиная с января 2011 года, Вы можете получить, выбрав интересующий диапазон дат из раскрывающегося списка и нажав кнопку "Ввод!".


*Определитесь, кто Вы:
робот инопланетянин человек

Внимание! Время в таблицах - всемирное. Для получения местного времени необходимо прибавить поправку, которая равна 5 ч.

Смотрите также архив погоды в соседних городах и на ближайших метеорологических станциях:

Погода в Сакранде (Пакистан) (84 км)
Погода в Митхи (Пакистан) (90 км)
Погода в Хайдарабате (Пакистан) (96 км)
Погода в Мир Пур Кхас (Пакистан) (99 км)
Погода в Татте (Пакистан) (102 км)
Погода в Чоре (Пакистан) (133 км)
Погода в Налии (Гуджарат, Индия) (154 км)
Погода в Бхудже (Гуджарат, Индия) (172 км)
Погода в Карачи (Пакистан) (181 км)
Погода в Навабшахе (Пакистан) (188 км)

Пояснения к столбцам:

Ветер - указаны скорость ветра в м/с - средняя за 10 мин, порывы в срок и между сроками (в фигурных скобках) и направление, откуда дует ветер: С - северный, СВ - северо-восточный, В - восточный, ЮВ - юго-восточный, Ю - южный, ЮЗ - юго-западный, З - западный, СЗ - северо-западный.
Видимость - горизонтальная дальность видимости в метрах или километрах. При видимости от 1 до 10 км при отсутствии осадков обычно наблюдается дымка, при ухудшении видимости до 1 км и менее - туман. В сухую погоду видимость может ухудшаться дымом, пылью или мглою.
Явления - указаны атмосферные явления, наблюдавшиеся в срок или в последний час перед сроком; фигурными скобками обозначены явления, наблюдавшиеся между сроками (за 1-3 часа до срока); квадратными скобками обозначены град или гололедные отложения с указанием их диаметра в мм.
Облачность - указаны через наклонную черту общая и нижняя облачность в баллах и высота нижней границы облаков в метрах; квадратными скобками обозначены формы облаков: Ci - перистые, Cs - перисто-слоистые, Cc - перисто-кучевые, Ac - высококучевые, As - высокослоистые, Sc - слоисто-кучевые, Ns - слоисто-дождевые, Cu - кучевые, Cb - кучево-дождевые. Подробнее классификацию облаков см. в Атласе облаков (PDF).
T - Температура воздуха - температура, измеренная на высоте 2 м над землей.
Td - Температура точки росы - температура, при понижении до которой содержащийся в воздухе водяной пар достигнет насыщения.
f - Относительная влажность воздуха - влажноcть воздуха, измеренная на высоте 2 м над землей.
Te - Эффективная температура - температура, которую ощущает одетый по сезону человек в тени. Характеристика душности погоды. При расчете учитывается влияние влажности воздуха и скорости ветра на теплоощущения человека.
Tes - Эффективная температура на солнце - температура, которую ощущает человек, с поправкой на солнечный нагрев. Характеристика знойности погоды. Зависит от высоты солнца над горизонтом, облачности и скорости ветра. Ночью, в пасмурную погоду, а также при ветре 12 м/с и более поправка равна нулю.
P - Атмосферное давление - приведенное к уровню моря атмосферное давление.
Po - Атмосферное давление - измеренное на уровне метеостанции атмосферное давление.
Tmin - Минимальная температура - минимум температуры воздуха на высоте 2 м над землей.
Tmax - Максимальная температура - максимум температуры воздуха на высоте 2 м над землей.
R - Количество осадков - Количество выпавших осадков за период времени, мм. При наведении курсора мыши на число - период времени, за который выпало указанное количество осадков.
R24 - Количество осадков - Количество выпавших осадков за 24 часа, мм.
S - Снежный покров - Высота снежного покрова, см. При наведении курсора мыши на число - состояние снежного покрова и степень покрытия местности в баллах.